Flag for Micronesia Weather past 2 weeks in Colonia, Yap, Micronesia

84 °F

Broken clouds.

Feels Like: 95 °F
Forecast: 82 / 87 °F
Wind: 12 mph from Southwest

Location: Yap Island

Current Time: Oct 14, 2015 at 9:41:37 AM

Latest Report: Oct 14, 2015 at 8:52 AM

Visibility: 12 mi

Pressure: 29.74 "Hg

Humidity: 79%

Dew point: 77 °F

Location of ColoniaLocation

Historic Weather in Colonia — Graph


Colonia temperature yesterday

Maximum temperature yesterday: 88 °F (at 12:55 PM)
Minimum temperature yesterday: 82 °F (at 4:50 AM)
Average temperature yesterday: 84 °F

Past Weeks' High & Low Weather Summary

High88 °F (Oct 5, 12:50 PM)99% (Oct 4, 4:59 AM)29.97 "Hg (Oct 4, 4:59 AM)
Low36 °F (Oct 4, 4:59 AM)69% (Oct 13, 1:53 PM)29.69 "Hg (Oct 14, 3:50 AM)
Average82 °F83%29.83 "Hg
* Reported Sep 29 9:51 AM — Oct 14 8:52 AM, Colonia, Weather by CustomWeather, © 2015

Note: Actual official high and low records may vary slightly from our data, if they occured in-between our weather recording intervals... More about our weather records


Colonia weather history for previous 24 hours

Time TempWeatherWind HumidityBarometerVisibility
8:52 AM
Wed, Oct 14
84 °FBroken clouds.12 mph79%29.74 "Hg12 mi
7:52 AM82 °FMostly cloudy.16 mph84%29.73 "Hg12 mi
6:51 AM81 °FMostly cloudy.12 mph89%29.72 "Hg12 mi
5:52 AM78 °FSprinkles. Mostly cloudy.12 mph93%29.70 "Hg8 mi
4:55 AM80 °FSprinkles. Mostly cloudy.12 mph89%29.69 "Hg8 mi
3:50 AM80 °FSprinkles. Mostly cloudy.16 mph89%29.69 "Hg7 mi
2:51 AM79 °FMostly cloudy.14 mph87%29.70 "Hg12 mi
1:53 AM81 °FPartly cloudy.14 mph85%29.71 "Hg12 mi
12:54 AM83 °FPartly cloudy.13 mph82%29.72 "Hg12 mi
11:52 PM
Tue, Oct 13
83 °FPartly cloudy.13 mph82%29.73 "Hg12 mi
10:53 PM83 °FPartly cloudy.10 mph82%29.74 "Hg12 mi
9:53 PM83 °FPartly cloudy.9 mph82%29.75 "Hg12 mi
8:51 PM83 °FPartly cloudy.10 mph81%29.73 "Hg12 mi
7:52 PM83 °FPartly cloudy.12 mph82%29.72 "Hg12 mi
6:54 PM83 °FBroken clouds.10 mph82%29.71 "Hg12 mi
5:54 PM82 °FBroken clouds.12 mph86%29.70 "Hg12 mi
4:53 PM86 °FBroken clouds.10 mph77%29.70 "Hg12 mi
3:52 PM85 °FBroken clouds.10 mph80%29.70 "Hg12 mi
2:51 PM88 °FBroken clouds.14 mph69%29.70 "Hg12 mi
1:53 PM88 °FBroken clouds.12 mph69%29.72 "Hg12 mi
12:55 PM88 °FBroken clouds.9 mph71%29.75 "Hg12 mi
11:53 AM88 °FBroken clouds.10 mph73%29.76 "Hg12 mi
10:51 AM88 °FBroken clouds.12 mph72%29.79 "Hg12 mi
9:51 AM87 °FBroken clouds.9 mph73%29.79 "Hg12 mi
Weather by CustomWeather, © 2015

See weather overviewHow to use our weather pages